Location: Boiro
(42.6475°N, 8.8834°W)
Time: 09:12:53
(UTC+02:00)

NANOSAT C BR1 - Pass Details

Date: 24 August 2022
Orbit: 582 x 600 km, 98.0° (Epoch: 25 September)

Event Time Altitude Azimuth Distance (km) Brightness Sun altitude
Rises 04:35:28 0° 16° (NNE) 2,830 ? -29.9°
Reaches altitude 10° 04:37:40 10° 21° (NNE) 1,921 ? -29.6°
Enters shadow 04:40:25 38° 40° (NE) 910 ? -29.4°
